GFSGBSN_500_rhum_099.txt.gz
RH
58 65 64 62 54 45 44 41 36 32 30 30 28 27 27 26 21 15 14 18 23 27 27 30 31 40 45 45 48 66 66 60 60 64 53 51 49 48 42 42 32 24 20 18 17 17 16
81 76 65 55 47 42 40 38 36 34 30 24 18 14 10 7 4 3 3 3 2 3 10 16 29 39 38 43 71 73 65 70 62 63 68 55 53 56 48 45 39 28 21 19 17 17 17
77 67 58 49 45 41 35 26 21 15 10 6 4 3 2 2 2 2 2 2 2 2 2 2 7 19 35 48 72 81 74 74 74 68 67 70 57 52 49 44 40 30 26 26 27 26 25
68 60 51 46 41 30 22 15 12 8 6 4 3 2 3 3 3 2 2 2 2 2 2 2 2 3 17 36 90 100 87 76 77 79 75 75 67 54 48 47 41 34 32 34 33 35 35
62 55 49 36 30 21 15 11 6 5 4 3 3 3 3 3 2 2 2 2 2 2 2 2 2 2 6 14 46 98 93 98 85 82 83 80 73 61 51 49 46 41 38 39 43 42 32
60 51 39 33 24 16 8 5 4 4 3 3 3 3 3 3 3 2 2 2 2 4 5 4 2 2 2 4 20 79 97 99 98 99 94 86 81 72 59 50 46 45 44 43 42 37 34
56 45 38 24 16 10 6 5 4 4 4 3 4 4 3 3 3 2 2 2 8 10 8 7 6 2 2 2 10 50 100 99 98 99 95 97 88 72 64 52 50 45 40 38 37 34 32
51 40 25 14 8 5 5 5 5 4 4 4 4 5 4 3 2 2 3 7 10 11 8 11 8 4 2 2 3 50 100 99 98 100 99 98 77 82 60 53 52 44 40 36 32 28 27
42 21 12 8 5 5 5 5 5 5 5 5 6 7 4 3 3 7 11 15 14 12 8 7 9 4 2 2 4 63 95 97 99 100 99 100 93 92 72 66 63 41 34 29 27 23 22
22 10 10 6 5 6 6 6 6 6 6 7 8 6 3 3 6 16 18 21 22 21 15 10 7 4 2 3 2 64 94 100 99 99 100 98 96 99 97 97 64 33 26 23 20 19 17
11 7 5 4 5 6 6 7 6 7 7 8 9 5 4 7 16 21 30 28 25 21 14 11 9 41 6 4 5 53 98 96 97 100 100 100 100 100 97 94 82 63 38 24 19 17 16
5 4 4 4 5 6 6 6 7 7 7 8 8 4 6 19 25 27 26 25 20 13 7 11 14 94 25 8 10 46 90 96 100 100 100 96 97 98 90 78 45 21 20 19 18 17 16
4 4 4 4 4 5 5 6 6 7 8 9 6 5 17 28 30 27 22 14 11 11 18 42 32 97 96 27 15 52 88 88 94 94 99 100 90 82 69 22 15 19 22 22 21 19 18
4 4 4 4 4 4 4 5 6 7 8 9 6 10 30 32 30 17 9 10 19 20 14 48 27 100 100 68 43 66 88 97 100 100 100 100 93 59 34 21 21 23 24 26 26 23 21
4 4 4 4 4 4 4 4 6 8 9 7 7 21 36 32 19 8 13 32 33 22 55 35 48 94 100 88 89 72 77 94 85 79 74 89 74 55 56 34 26 27 28 27 26 24 19
5 4 4 4 4 4 4 4 7 9 10 7 10 39 36 22 9 19 47 47 30 18 49 61 100 100 100 97 100 78 78 93 78 77 58 26 33 40 28 27 28 29 27 26 25 21 16
6 5 5 5 5 4 4 5 7 10 9 8 21 43 30 9 19 54 47 31 24 30 100 99 100 100 98 100 100 97 90 64 88 49 61 45 29 31 30 29 30 28 25 22 17 14 14
7 6 6 6 5 4 4 5 8 11 9 11 38 41 19 11 48 59 38 30 25 68 100 100 100 100 100 100 100 100 100 88 82 73 56 60 42 38 34 31 28 25 22 16 12 16 14
7 6 7 7 6 4 5 5 8 11 9 13 49 37 10 22 50 55 44 25 31 77 100 100 100 100 100 100 100 100 100 100 100 91 69 75 69 59 48 43 25 17 12 11 14 14 11
6 6 6 6 5 5 5 6 8 12 10 16 52 29 9 27 42 43 30 26 37 96 100 100 100 100 100 95 100 100 98 100 96 100 100 100 97 69 53 46 34 25 22 21 16 12 22
6 5 6 6 5 6 6 6 10 12 11 24 52 25 9 16 19 18 22 29 40 91 100 100 100 100 100 100 100 100 100 100 100 100 100 100 100 99 96 42 31 41 31 20 14 33 55
5 5 5 5 6 6 6 6 14 13 13 34 53 27 9 11 12 14 18 31 77 99 100 96 100 99 100 100 100 100 100 100 100 100 98 100 100 100 97 58 26 45 34 20 14 22 64
6 6 6 7 7 7 7 7 16 13 15 48 56 32 10 11 13 14 18 28 65 100 90 86 100 100 100 100 100 100 100 100 100 100 100 93 97 96 96 73 66 54 26 13 7 7 12
9 10 11 12 11 9 7 10 17 14 16 55 59 35 14 12 15 16 19 27 54 96 77 79 99 100 99 100 99 95 99 91 80 86 83 77 90 51 66 83 57 27 11 7 7 6 8
19 18 17 15 14 10 8 15 17 16 18 62 64 40 30 13 16 21 26 29 62 72 66 63 77 93 99 100 100 93 40 49 39 43 52 48 27 10 11 16 13 11 10 10 9 8 25
19 18 17 16 14 10 9 20 17 18 22 70 70 47 45 15 18 29 31 44 62 68 76 74 76 85 89 81 89 79 66 47 40 48 53 38 22 30 25 17 12 10 9 9 9 6 8
20 18 17 16 14 10 12 23 18 20 26 78 77 60 34 46 20 29 42 58 78 78 74 89 81 70 66 62 62 64 60 59 55 51 60 58 55 52 41 46 50 26 13 14 13 12 10
28 26 24 20 15 11 22 25 19 23 33 79 80 76 38 60 31 24 31 50 70 94 96 91 83 71 70 64 63 58 59 63 66 64 64 65 65 59 57 50 35 41 29 22 21 18 12
34 31 29 28 21 19 28 26 22 25 42 83 81 90 51 40 73 31 26 27 36 49 66 88 100 97 92 66 60 59 57 63 60 62 57 59 56 39 35 32 40 36 27 22 18 14 13

GFSGBSN_500_rhum_102.txt.gz
RH
66 65 56 56 55 54 51 51 39 31 28 28 26 23 22 20 19 18 17 15 14 13 13 12 10 11 13 15 20 30 34 46 50 52 69 66 62 59 48 53 52 41 36 29 26 25 28
71 68 62 63 59 65 58 44 37 34 33 29 25 23 21 18 15 12 10 8 7 6 6 7 6 7 8 10 8 12 26 40 45 54 61 73 69 69 58 48 50 46 43 36 30 25 23
84 73 66 68 68 60 48 42 38 34 27 25 22 20 17 13 10 9 7 6 4 4 4 3 3 3 4 6 5 4 9 28 50 61 69 78 78 72 66 56 47 48 44 44 40 32 24
93 86 79 76 66 54 46 42 37 29 25 22 20 16 12 10 8 7 6 4 4 3 3 2 2 2 2 2 2 2 2 7 38 64 83 90 92 80 69 64 52 49 46 42 43 40 27
94 91 81 71 58 50 45 38 31 25 22 20 16 11 10 7 5 4 4 4 3 2 2 2 2 2 2 2 2 2 2 2 14 53 88 94 94 91 86 73 66 58 50 45 43 40 33
97 89 81 62 56 48 42 32 26 24 20 15 11 9 7 5 4 4 4 3 2 2 2 2 2 2 2 4 4 2 2 2 4 51 100 94 94 93 90 84 65 65 56 52 48 40 37
96 88 68 61 50 42 32 28 26 22 17 12 11 10 8 5 5 5 4 3 2 2 2 5 7 6 9 10 6 4 2 2 3 37 86 100 99 79 87 93 81 66 59 52 49 45 41
94 79 69 58 46 32 25 28 23 16 11 11 11 8 6 5 6 6 4 3 2 3 3 12 14 12 10 9 7 7 4 2 8 42 100 99 80 94 100 98 96 96 86 62 47 46 44
92 81 70 52 31 28 25 23 16 11 10 9 9 8 7 7 6 5 3 3 6 8 9 9 12 12 10 10 7 7 4 3 19 76 88 92 99 100 96 100 97 98 97 78 56 47 45
88 74 62 40 31 26 17 11 11 8 8 8 9 9 8 8 7 4 4 9 13 14 16 14 15 12 10 11 8 6 4 6 33 78 98 97 94 98 99 98 99 96 93 69 52 46 42
80 72 58 27 30 14 10 9 7 6 6 8 10 9 10 9 6 4 7 17 20 21 19 15 13 12 16 32 19 4 4 11 46 87 89 100 100 100 99 100 100 99 92 80 57 43 40
82 70 38 14 16 7 9 6 5 5 5 7 10 10 11 9 4 4 14 19 19 14 10 12 11 27 24 100 30 5 6 16 72 82 95 98 100 100 96 100 98 94 96 88 50 36 38
80 63 14 12 9 6 5 4 4 5 5 7 10 11 12 7 4 11 18 19 10 6 16 14 17 19 74 100 40 9 10 20 80 89 95 99 100 100 100 100 99 95 97 93 78 70 46
80 40 8 9 8 5 4 3 4 4 5 8 10 12 11 4 6 18 17 6 7 20 22 14 28 36 83 99 72 44 22 50 95 74 72 100 100 100 100 99 100 100 79 23 25 26 22
71 21 6 7 9 4 4 3 4 4 5 8 11 12 7 5 17 17 6 13 37 40 58 16 58 83 100 100 100 65 50 64 82 100 100 100 99 100 99 99 98 61 36 32 28 24 23
61 17 6 11 7 6 5 4 4 4 6 8 12 11 6 12 20 7 15 46 44 30 43 70 98 100 100 92 100 78 65 68 88 98 100 100 99 100 100 81 62 43 33 32 30 28 25
54 16 6 13 6 10 6 4 4 5 7 10 12 8 9 23 13 8 36 37 30 24 81 94 100 100 98 89 100 85 70 64 96 98 90 75 94 94 98 80 60 44 49 38 30 27 24
63 20 7 11 8 16 4 4 4 5 8 11 11 7 16 25 6 18 33 23 17 94 98 100 100 100 100 99 100 100 97 72 95 100 99 87 89 58 67 70 64 58 47 31 26 24 22
63 17 16 9 24 22 4 4 5 6 9 11 10 8 23 20 6 16 14 14 52 88 100 100 100 100 100 100 100 89 100 97 99 100 98 99 96 70 65 56 52 42 33 27 24 22 14
74 17 15 46 60 7 5 4 6 8 9 10 9 10 28 15 7 9 11 30 77 100 100 100 100 100 100 100 100 96 100 100 98 98 97 99 100 99 90 70 48 39 35 32 20 12 14
64 59 21 59 42 6 5 5 7 8 10 11 9 11 34 14 7 8 13 38 93 99 97 99 100 100 100 100 100 100 100 100 100 96 100 98 98 97 98 81 64 59 63 35 17 20 21
100 77 92 84 18 5 5 7 8 9 11 12 9 13 36 18 8 8 14 30 75 100 100 100 100 100 100 100 100 100 100 100 100 100 100 100 97 100 100 94 74 58 38 36 38 27 14
100 100 85 25 8 6 8 10 10 9 10 12 10 18 39 23 8 9 8 18 48 86 83 95 100 100 100 100 100 100 100 100 100 100 100 100 100 100 100 100 100 78 48 51 39 24 14
100 88 69 23 11 16 12 12 11 9 10 12 12 21 42 27 9 9 9 11 25 59 49 78 98 99 100 100 100 100 99 100 100 99 98 92 83 88 85 92 88 80 63 45 23 10 6
86 45 21 50 31 15 14 13 12 10 12 12 14 32 48 29 14 10 11 12 18 26 50 53 80 90 93 95 100 90 81 89 96 74 61 76 77 62 23 32 44 57 46 19 10 8 8
55 65 55 26 19 16 14 14 12 10 14 12 15 41 52 31 26 10 13 16 21 26 51 53 58 74 84 87 86 84 84 67 50 51 44 49 54 48 30 34 16 24 16 10 10 9 9
33 26 24 20 18 16 15 14 11 11 18 14 18 47 58 39 41 13 14 20 28 58 79 76 81 78 75 77 63 64 65 60 52 45 40 35 37 51 32 32 45 37 16 11 11 11 11
26 24 22 20 19 18 16 14 12 15 20 18 25 52 63 53 36 38 14 20 26 42 79 76 61 72 72 65 58 54 49 49 42 40 41 42 48 53 54 53 54 48 43 33 21 18 16
32 32 32 29 26 24 21 17 14 21 22 21 30 60 71 64 40 54 28 16 19 28 47 70 78 72 72 67 60 51 48 46 44 46 46 48 53 60 50 44 50 58 57 49 41 34 26

GFSGBSN_500_rhum_108.txt.gz
RH
86 89 86 91 94 95 94 93 92 87 74 64 57 40 34 32 27 25 23 18 13 12 12 10 9 9 8 7 9 9 7 7 6 6 6 7 10 16 23 43 58 60 49 59 60 63 63
94 85 82 86 95 92 96 96 94 96 95 94 90 62 44 32 29 27 24 21 17 14 13 11 11 10 8 6 7 7 7 6 6 5 5 5 6 9 11 23 46 51 66 66 64 58 55
97 95 97 90 91 94 93 92 87 88 93 92 89 70 45 35 31 29 25 21 18 15 15 14 12 10 8 8 7 6 6 5 6 6 5 5 5 5 7 11 23 48 67 71 62 56 52
87 97 97 98 98 98 97 95 92 89 82 69 65 56 44 38 33 28 24 20 18 16 16 13 11 10 8 7 6 6 5 5 4 4 4 4 3 3 4 6 10 35 66 61 46 63 58
95 97 97 97 97 99 96 95 96 89 89 74 73 53 42 39 33 28 24 21 20 17 15 14 12 11 9 7 6 5 4 4 3 3 2 2 2 3 3 3 5 14 32 37 49 76 82
100 98 97 97 96 97 97 98 96 94 93 88 73 48 44 38 33 28 26 24 19 17 15 14 13 11 8 7 6 5 3 2 1 1 1 2 2 2 2 2 2 7 10 48 54 70 92
44 90 97 97 97 97 97 97 95 97 97 81 54 47 41 36 32 30 28 25 21 18 12 11 12 10 8 4 4 2 2 2 3 3 4 4 5 2 2 2 2 4 50 67 55 89 100
87 98 97 97 97 97 97 97 97 97 95 59 43 40 37 35 34 31 27 24 20 16 12 12 9 7 5 5 4 4 6 6 8 7 8 10 7 2 2 3 3 22 73 91 98 98 99
66 87 98 98 97 97 97 98 97 98 77 46 36 37 36 35 34 31 26 23 20 17 13 7 6 5 5 11 13 20 14 11 10 9 10 11 5 9 5 4 16 50 96 99 91 100 100
91 96 98 98 98 98 97 98 96 96 78 44 34 34 29 37 34 28 26 22 19 15 8 25 19 17 50 99 52 77 32 28 13 10 11 11 24 60 11 8 38 83 100 100 100 100 95
52 94 98 97 98 98 97 98 97 90 78 27 30 28 37 39 34 29 25 20 15 11 14 37 57 50 99 98 87 100 100 75 55 22 14 16 55 100 100 51 57 71 100 100 100 99 92
96 100 98 99 98 98 98 98 98 86 38 22 29 33 39 41 34 28 22 15 11 6 28 12 54 84 81 76 83 88 48 91 100 50 13 38 98 100 73 100 98 100 100 96 98 100 99
97 91 99 99 99 98 97 100 95 67 31 21 36 38 44 37 30 22 13 10 6 5 3 7 5 8 30 85 88 97 63 60 100 48 11 22 83 93 99 100 100 100 94 100 100 96 50
97 100 98 99 98 98 98 97 90 60 28 20 41 41 40 34 23 13 8 4 5 6 18 97 30 86 95 82 97 81 75 85 91 56 60 30 87 83 74 91 73 82 99 98 93 78 70
100 98 100 98 98 98 97 86 71 48 31 22 45 40 30 25 18 8 5 5 19 46 56 74 98 85 85 83 70 74 90 48 65 12 99 100 100 99 94 82 84 86 77 98 100 100 98
99 100 99 99 98 100 96 85 64 44 26 28 42 30 28 22 12 4 4 7 21 50 67 85 64 82 78 91 90 99 88 46 5 39 83 100 96 99 100 100 98 94 100 99 100 99 100
100 99 99 99 98 99 97 73 62 39 24 36 42 27 23 18 8 4 6 12 45 51 57 62 84 88 100 93 100 73 100 82 11 17 99 95 96 97 100 93 92 100 98 92 99 100 100
99 99 99 99 100 100 95 76 59 44 25 38 34 22 23 14 6 4 8 18 25 38 58 65 85 96 79 92 95 95 72 44 68 72 100 100 100 93 100 100 100 100 100 100 96 100 100
99 99 99 100 100 100 87 74 60 46 32 43 22 18 18 11 4 5 9 18 26 35 50 59 59 62 70 78 100 97 93 50 23 75 95 100 100 98 100 98 97 98 100 100 100 99 99
100 99 100 100 100 95 87 78 70 41 38 48 22 18 17 8 4 5 11 12 36 27 44 67 87 86 80 56 97 94 88 65 57 47 75 70 98 100 100 100 100 98 96 99 98 100 100
100 100 100 100 100 98 80 86 69 40 60 23 16 16 15 7 4 7 12 10 39 29 42 52 73 85 100 97 90 89 94 90 88 96 99 94 100 100 100 98 100 100 100 100 100 100 100
100 100 100 100 100 90 96 85 59 65 45 27 14 16 14 6 5 11 14 8 31 36 41 44 65 91 99 100 91 93 85 89 98 99 100 100 100 100 100 100 100 100 100 100 98 96 95
100 100 100 100 100 100 93 89 85 75 30 24 12 16 14 7 6 10 16 10 15 39 30 31 70 81 100 100 100 87 100 100 86 90 98 99 100 100 100 100 100 100 100 88 84 83 86
100 100 100 100 100 93 96 83 84 38 39 19 10 14 13 7 6 14 21 14 6 21 47 32 49 77 90 100 100 100 86 95 100 100 100 98 100 100 100 100 100 100 99 93 98 100 99
100 100 100 100 100 97 93 96 64 40 42 13 10 14 12 7 7 16 23 19 10 5 10 42 43 60 81 95 99 100 100 100 100 100 100 100 96 100 100 100 100 86 95 94 95 86 62
100 100 100 100 99 100 97 85 44 61 24 13 12 14 12 8 12 17 25 22 15 5 6 14 35 48 80 63 99 100 100 97 100 100 100 98 99 99 94 89 99 90 90 80 93 61 44
100 100 100 100 100 100 96 48 67 43 19 13 12 13 12 9 11 21 30 26 19 8 6 9 10 26 34 54 70 98 100 100 99 96 58 91 61 66 70 88 56 38 25 28 34 51 35
100 100 100 100 100 99 58 75 64 30 18 14 13 13 13 12 14 23 36 33 24 11 6 12 21 23 20 26 41 41 73 69 96 46 42 39 97 46 43 54 67 60 46 42 35 27 23
100 100 100 100 97 86 85 74 46 24 18 14 14 13 15 14 17 32 42 36 24 19 7 9 20 36 33 31 32 32 39 44 41 100 47 33 35 39 28 37 42 48 51 51 45 40 31

GFSGBSN_500_rhum_111.txt.gz
RH
6 13 72 98 97 92 91 89 94 96 96 96 96 94 93 87 82 53 44 44 36 24 22 18 13 11 9 8 10 7 6 5 4 3 4 5 6 7 7 7 8 9 9 25 37 60 66
6 5 15 64 96 96 96 95 90 92 95 95 94 94 95 92 88 90 91 69 55 34 23 18 15 11 8 8 7 6 6 4 4 5 4 6 6 6 6 6 6 7 8 13 28 49 60
6 4 6 12 96 76 88 97 96 95 95 95 94 93 92 83 74 79 75 65 36 27 24 21 15 9 6 9 6 5 4 5 5 7 6 6 5 5 5 5 5 5 6 8 10 25 45
5 5 5 11 18 69 91 96 96 97 96 93 94 87 82 83 65 61 52 41 36 30 25 19 14 10 6 7 7 8 7 7 7 6 6 6 5 4 4 4 5 5 5 5 3 6 29
6 5 5 9 17 64 99 96 96 97 96 97 95 94 92 90 75 70 53 42 36 30 24 20 17 13 10 10 9 9 7 6 6 6 6 5 5 4 4 3 3 4 4 4 4 8 23
39 8 7 11 18 49 99 93 92 96 97 97 97 95 94 95 88 68 49 41 35 28 23 21 20 15 12 11 8 6 5 5 4 4 4 4 3 3 3 2 2 2 3 4 4 6 20
51 43 14 31 46 75 82 58 92 72 97 97 95 95 96 97 87 60 46 39 34 28 25 22 18 13 10 6 5 4 4 3 4 6 6 5 4 2 2 4 3 2 3 3 3 4 34
64 95 35 54 34 62 97 98 92 95 98 96 96 96 97 96 76 71 46 37 30 25 16 16 12 8 6 4 3 4 5 18 20 18 12 10 6 5 7 8 5 4 3 3 3 4 97
47 82 50 63 98 97 96 91 98 98 99 99 97 96 96 96 91 51 40 34 28 21 15 11 7 4 3 2 1 3 44 58 53 45 24 18 11 11 11 11 9 6 5 3 4 21 84
71 74 93 94 91 98 97 72 100 96 99 97 96 96 95 96 51 42 38 31 23 16 10 7 4 4 2 2 3 32 68 80 100 99 64 39 14 13 19 70 19 10 6 5 30 98 99
99 100 100 100 99 100 93 81 77 100 99 97 97 98 93 48 48 44 38 30 21 12 8 5 5 2 2 5 14 38 67 100 83 100 87 87 25 13 32 99 98 8 11 25 98 98 88
98 91 98 99 98 99 86 73 100 100 98 98 98 97 66 44 48 44 36 26 15 9 7 5 14 9 6 36 51 20 34 94 58 39 94 72 28 60 32 100 73 51 100 93 79 98 99
99 98 99 98 98 96 88 100 100 99 97 98 99 88 46 47 48 39 30 20 12 9 6 7 14 19 24 21 39 44 39 30 20 53 95 51 15 81 94 78 92 98 100 91 100 100 56
99 100 99 98 97 98 100 100 100 98 98 100 98 70 34 51 45 34 24 16 11 8 4 20 28 48 32 18 28 52 53 60 76 76 81 13 26 60 93 65 96 98 63 78 87 55 37
100 100 98 94 89 86 99 100 99 98 100 100 69 27 43 50 40 27 17 13 8 4 6 13 28 25 30 37 52 56 72 53 48 86 58 16 32 100 87 100 94 96 63 70 78 76 80
100 100 91 98 100 100 100 100 100 100 100 76 43 33 50 45 33 20 12 7 4 5 19 36 29 18 20 27 64 64 88 59 99 96 20 82 96 100 95 72 69 73 87 76 80 91 95
100 100 100 99 100 100 100 100 100 100 86 58 45 40 49 40 27 13 8 4 4 10 18 30 29 29 31 40 57 83 53 59 61 36 89 100 100 100 100 99 95 75 88 76 100 92 99
100 100 100 100 100 100 100 100 100 94 76 61 45 50 44 37 22 7 5 3 6 13 18 32 45 36 24 34 52 79 46 100 68 60 87 100 100 100 100 100 100 100 100 100 100 99 99
100 100 100 100 100 100 100 100 100 90 78 51 50 52 44 28 16 7 4 4 6 14 17 25 40 33 23 35 55 78 77 71 82 71 98 100 100 100 87 100 100 100 100 96 100 100 100
100 100 100 100 100 100 100 100 98 71 74 59 52 53 34 23 13 5 3 6 7 15 18 29 40 54 40 32 73 69 90 82 27 21 70 100 100 100 100 97 100 100 100 97 99 100 100
100 100 100 100 100 100 100 100 82 76 79 55 59 40 25 23 10 5 3 6 8 12 21 34 32 43 55 54 82 97 100 88 54 23 44 81 94 99 100 100 99 94 100 100 100 100 99
100 100 100 100 100 100 100 81 94 84 81 53 56 33 22 19 10 4 4 8 10 10 22 36 36 46 48 63 75 100 93 98 98 83 100 100 92 100 96 100 100 100 100 99 97 100 100
100 100 100 100 100 100 95 97 91 92 86 68 42 30 17 18 10 5 4 6 12 9 12 31 35 65 80 64 87 73 63 84 92 100 100 98 100 100 100 100 100 100 100 96 98 100 96
100 100 100 100 100 100 100 88 98 91 90 60 34 25 16 17 10 5 4 7 15 13 8 7 40 33 73 85 82 74 65 89 79 94 99 100 99 99 100 100 100 100 95 93 95 89 86
100 100 100 100 100 100 100 100 100 96 82 32 39 20 15 17 10 5 5 6 17 17 12 7 10 37 50 83 99 100 87 94 81 82 86 100 100 98 100 100 98 98 100 98 99 99 99
100 100 100 100 100 100 100 100 100 91 60 28 42 15 13 16 11 7 6 9 19 19 16 8 5 22 59 83 93 100 100 100 97 100 100 100 100 100 99 100 100 100 92 83 90 96 96
100 100 100 100 100 100 100 100 100 73 36 46 30 15 13 15 11 7 7 10 20 22 18 9 5 8 35 60 91 98 100 100 90 94 93 76 88 100 100 100 100 88 39 46 57 58 68
100 100 100 100 100 100 100 100 95 56 58 49 23 13 13 14 12 8 8 14 24 26 20 13 8 8 18 28 46 77 88 100 98 96 95 99 97 56 60 75 76 67 53 47 43 39 44
100 100 100 100 100 100 100 99 89 67 67 42 19 14 13 14 12 9 10 19 27 31 22 17 9 7 14 28 29 27 42 74 68 99 45 41 43 64 34 37 36 40 47 50 50 47 41

GFSGBSN_500_rhum_114.txt.gz
RH
6 6 6 8 7 7 15 74 83 85 88 91 90 91 91 93 91 92 91 89 74 73 75 58 34 31 27 23 19 16 12 10 8 7 6 6 5 4 3 4 4 3 2 3 2 2 2
5 5 6 5 5 6 6 8 80 88 78 82 92 96 96 94 94 92 86 79 72 68 70 70 67 62 51 28 22 16 14 9 7 6 5 4 4 4 3 3 3 5 3 3 3 2 2
5 4 5 6 6 5 6 7 18 30 80 93 87 86 94 96 95 91 85 69 63 56 59 58 55 54 34 25 21 16 10 8 6 5 5 6 5 3 2 2 3 4 4 4 4 4 5
4 4 5 6 22 8 6 7 8 19 60 97 92 80 72 88 94 94 91 80 69 64 60 52 45 37 29 25 20 12 8 7 6 6 3 4 4 4 4 5 6 6 6 5 4 5 5
5 5 7 5 49 93 12 6 10 15 31 100 97 67 75 63 89 96 96 93 86 76 69 55 45 36 28 22 16 12 9 7 4 4 4 4 4 4 4 5 5 5 6 6 5 4 5
6 5 6 7 17 61 41 37 11 26 28 81 93 88 85 72 87 92 99 96 91 85 67 50 40 31 23 16 12 8 5 4 3 3 2 3 3 4 5 7 5 5 4 4 4 4 4
7 6 7 6 25 37 33 99 43 60 30 29 76 93 72 77 84 99 100 96 95 83 58 45 33 25 18 14 9 6 3 2 2 1 1 2 4 9 11 12 8 5 5 3 3 3 3
8 8 20 17 44 29 46 99 88 81 64 68 80 84 64 54 86 99 100 97 98 86 48 32 23 16 11 7 4 3 2 1 1 1 2 6 11 31 30 22 13 10 9 4 2 2 4
8 9 14 94 28 25 69 98 98 65 79 97 92 77 62 86 97 95 98 98 86 43 33 24 14 10 6 4 2 2 2 2 2 3 22 60 55 76 36 20 19 23 12 7 3 3 10
9 8 8 70 98 67 92 100 96 95 96 98 90 71 69 80 94 98 98 86 45 33 23 15 9 6 4 2 2 4 8 11 13 18 88 83 87 84 74 26 22 42 33 10 6 8 13
16 17 10 58 98 52 81 75 81 80 99 99 96 94 93 92 98 97 88 49 34 26 16 10 6 4 2 2 2 18 35 37 34 33 91 69 45 89 94 21 27 54 92 17 18 11 64
86 78 92 96 100 100 99 99 100 98 98 96 96 79 97 100 99 96 64 37 28 18 11 8 5 3 2 10 27 29 43 54 42 46 50 58 42 76 56 21 15 96 32 32 78 36 50
73 96 77 89 99 98 99 99 97 98 99 98 94 98 100 98 99 83 51 33 20 14 10 6 4 2 4 14 27 34 37 47 59 59 52 69 80 36 16 13 76 81 81 79 100 98 59
99 87 89 95 100 100 100 98 100 95 96 98 95 99 99 99 90 59 36 25 18 13 9 6 3 5 15 22 27 45 48 74 54 44 56 35 15 22 33 50 100 100 95 80 89 89 79
100 99 98 100 100 100 99 99 97 98 97 100 100 100 99 89 58 42 30 21 17 12 9 6 2 8 21 27 34 44 40 44 74 74 38 11 22 60 100 88 91 90 76 69 88 87 83
100 100 100 100 99 100 100 99 99 98 99 100 100 100 97 62 47 35 27 17 15 12 9 4 3 11 14 23 38 43 38 92 87 16 24 48 42 99 99 90 98 87 94 70 88 100 100
100 99 100 98 96 100 100 99 99 99 100 100 100 100 72 50 42 33 21 16 14 10 6 3 4 18 19 20 33 41 68 96 54 58 92 100 100 100 98 100 100 91 62 65 75 82 84
100 100 100 100 100 100 100 100 100 100 100 100 100 90 59 49 38 27 19 14 11 7 3 2 6 15 17 17 26 44 57 76 88 76 97 99 100 95 91 98 99 92 87 81 69 79 100
100 100 100 100 100 100 100 100 99 99 100 99 99 79 54 47 33 20 15 9 6 4 2 5 14 16 15 20 29 59 59 84 56 85 82 96 100 100 100 100 100 100 100 100 99 100 100
100 100 100 100 100 100 100 100 100 100 100 99 82 55 54 43 31 20 10 9 4 3 4 11 15 16 17 21 44 49 64 72 78 47 46 62 100 99 99 99 95 93 100 100 100 100 100
100 100 100 100 100 100 100 100 100 100 100 85 62 57 46 34 30 16 8 7 3 4 6 14 14 15 16 28 57 65 79 82 67 38 26 33 86 90 98 99 100 85 100 100 100 100 100
100 100 100 100 100 100 100 100 99 100 96 82 55 55 42 34 28 16 6 5 3 6 8 8 10 17 16 29 37 58 66 77 100 62 70 65 100 100 100 100 100 100 100 100 100 100 100
99 100 100 100 100 100 100 100 100 100 93 84 56 54 38 32 27 15 6 4 3 4 8 8 8 23 21 31 33 34 40 70 96 94 95 80 92 100 100 100 100 100 100 100 100 100 100
100 100 100 100 100 100 100 100 100 99 82 91 70 51 43 32 26 13 6 4 4 6 7 11 9 7 33 42 50 48 38 67 80 77 89 89 90 100 100 100 100 100 100 100 100 100 99
99 100 100 100 100 100 100 100 99 99 98 99 70 49 42 27 21 14 6 4 4 5 8 13 12 6 27 48 42 68 92 68 73 61 67 89 86 100 100 100 100 100 100 100 100 100 100
100 100 100 100 100 100 100 99 100 99 100 96 62 44 42 22 17 14 7 5 4 5 10 12 13 7 16 51 78 95 100 100 85 80 70 72 88 89 100 96 100 99 92 84 82 84 80
100 100 100 100 100 99 100 100 98 100 100 81 52 41 37 15 15 14 8 5 5 5 10 15 15 10 11 38 80 87 100 100 100 98 92 100 100 100 100 100 95 83 75 60 57 59 75
100 100 100 100 100 100 100 100 100 100 95 85 36 37 28 14 15 15 8 6 6 6 11 16 17 12 7 31 52 83 93 100 100 100 90 98 94 99 100 100 98 84 55 49 48 44 52
100 100 100 100 100 100 100 100 100 100 98 48 26 43 21 15 15 14 9 7 6 6 12 20 19 17 7 8 32 36 73 94 87 100 98 88 95 91 75 58 54 51 47 42 44 44 45

GFSGBSN_500_rhum_117.txt.gz
RH
5 5 5 6 7 7 6 5 5 5 10 33 80 64 79 90 84 89 92 89 90 90 84 82 72 73 78 76 67 55 32 28 27 20 15 13 11 9 8 7 6 6 5 4 3 3 3
4 4 4 4 4 5 5 6 6 6 5 5 59 51 81 78 74 72 80 88 86 86 87 78 71 68 82 80 68 64 58 54 51 36 20 14 11 9 7 5 5 4 4 4 3 2 2
5 5 4 4 4 4 4 5 5 6 6 6 6 12 34 81 81 65 64 63 68 86 84 78 71 74 63 55 54 51 46 42 34 27 20 13 10 8 6 6 5 4 3 2 2 2 2
6 6 5 5 4 4 4 5 5 11 32 13 7 8 10 12 72 64 56 60 65 86 91 89 77 76 70 58 57 52 45 38 31 25 19 12 9 8 7 5 4 2 2 2 3 2 2
8 7 6 6 5 4 4 5 5 9 28 80 18 11 12 14 49 54 54 51 66 76 78 79 81 88 74 63 57 47 39 32 23 17 12 8 6 4 3 2 2 2 2 2 2 2 3
8 8 8 7 6 6 6 24 11 60 74 47 40 60 15 20 20 58 58 48 50 63 72 69 78 92 82 60 46 37 30 23 18 11 9 6 3 2 1 2 2 2 4 4 3 2 6
11 8 8 9 8 11 10 10 14 51 80 54 43 87 32 29 31 63 63 59 44 67 73 73 80 91 88 57 35 28 21 14 10 8 3 2 1 1 2 2 2 3 9 15 10 14 10
17 15 12 10 10 10 41 14 13 39 100 35 96 82 54 48 69 67 69 61 57 79 80 80 93 75 38 24 17 10 8 6 4 2 2 2 2 3 2 3 27 36 36 35 31 20 8
14 15 14 13 11 10 10 50 74 36 77 49 46 97 85 68 77 84 70 55 44 71 80 86 65 30 18 13 8 7 6 3 2 2 2 4 8 4 15 35 49 58 45 32 35 26 10
9 10 12 11 11 11 10 88 49 69 83 41 37 98 98 84 97 94 76 65 69 95 79 69 36 15 12 8 6 4 2 2 2 5 12 16 19 18 64 43 72 47 36 27 22 16 9
12 9 12 9 18 10 12 8 36 97 100 71 92 99 87 92 100 99 76 69 92 98 70 40 18 10 7 5 3 3 2 3 9 18 22 35 22 57 45 45 85 47 43 78 100 94 20
26 14 16 26 20 15 100 12 20 99 92 94 77 97 76 82 99 99 78 86 96 72 44 20 12 7 5 4 2 2 4 11 19 19 24 36 43 37 54 58 86 51 24 100 92 35 12
48 47 98 38 92 68 42 74 10 89 100 99 91 95 97 95 99 96 94 94 74 60 26 13 8 6 4 2 2 6 16 23 20 19 37 23 32 41 22 23 47 22 78 77 68 59 54
76 68 98 84 72 45 75 100 59 99 97 97 100 97 99 100 98 97 95 92 73 26 15 11 7 5 3 2 6 14 22 32 34 18 15 10 14 35 17 12 16 38 71 70 99 99 100
98 95 98 95 100 100 94 89 97 96 99 93 99 95 100 98 98 96 89 67 28 18 13 9 6 4 2 4 11 17 57 62 31 13 28 29 36 49 74 54 66 94 70 94 98 100 100
98 96 99 94 98 99 99 100 100 99 100 94 99 97 100 97 98 90 74 34 20 16 11 8 5 3 3 11 17 18 45 45 61 54 87 96 100 100 100 94 81 99 93 93 93 99 100
100 100 100 100 100 99 100 98 99 98 97 99 99 100 100 98 97 82 43 26 19 15 11 7 5 2 5 14 16 20 29 45 57 58 77 99 100 100 77 77 87 99 70 84 100 100 100
100 100 100 100 100 100 100 95 99 99 100 100 100 100 100 99 78 47 33 23 17 14 10 6 4 2 9 17 14 22 28 38 42 51 63 78 87 100 96 99 100 98 79 60 82 98 100
100 100 100 99 100 100 96 100 100 96 100 98 99 100 100 73 57 41 28 20 17 14 9 6 3 3 7 18 20 37 45 37 29 42 47 50 78 88 100 99 100 100 81 39 47 76 98
100 100 100 100 100 100 100 96 96 100 100 100 100 100 92 67 64 36 23 19 17 12 6 4 3 3 6 15 32 53 55 48 31 31 39 28 96 77 94 96 100 83 100 97 97 100 100
100 100 100 100 100 100 98 97 100 100 100 100 100 100 83 75 43 30 22 17 14 8 4 3 4 6 6 10 41 51 44 42 50 42 37 44 100 99 97 76 96 79 100 100 99 100 100
100 100 100 100 100 100 100 100 100 100 99 100 100 91 64 45 30 28 22 14 10 5 3 4 5 7 6 8 31 52 33 37 57 68 42 76 100 100 100 100 95 89 100 100 100 100 100
100 100 100 100 100 100 100 100 100 100 99 100 98 71 66 34 28 27 20 16 7 4 4 5 6 7 7 7 18 34 32 41 78 97 81 65 98 100 100 100 100 96 100 100 100 100 100
100 100 100 100 100 100 100 100 100 100 100 98 85 62 59 32 30 26 20 12 6 3 3 4 5 8 9 11 12 34 38 41 71 74 84 91 87 100 97 100 100 98 100 100 100 100 100
100 100 99 100 100 100 100 100 100 100 100 96 94 68 51 29 26 24 19 12 6 4 4 4 5 10 9 9 17 34 37 51 64 70 59 79 90 96 100 100 100 100 100 99 99 100 98
100 100 100 100 100 100 100 100 100 100 99 99 98 58 50 33 26 22 18 10 6 4 4 4 6 10 11 8 30 52 60 79 70 67 56 73 98 100 93 100 100 100 99 97 93 90 95
100 100 100 100 100 100 100 100 100 100 98 99 98 67 52 27 22 19 18 12 6 4 4 4 6 12 12 8 36 86 84 95 88 79 81 100 99 100 100 100 100 99 89 52 49 57 67
100 100 100 100 100 100 100 100 100 100 99 100 100 83 40 26 20 17 17 13 7 5 4 5 7 12 14 9 26 64 100 100 100 97 90 100 100 100 100 100 100 100 72 51 49 44 42
100 100 100 100 100 100 100 100 100 99 99 99 100 87 31 26 19 17 17 14 7 5 5 6 7 12 17 13 10 44 77 100 100 100 98 99 100 100 100 99 88 85 71 58 51 47 45

GFSGBSN_500_rhum_120.txt.gz
RH
7 6 5 6 6 6 6 9 16 9 8 5 5 5 5 48 65 50 80 74 66 73 85 85 83 90 89 80 80 74 69 67 75 73 70 57 41 36 29 26 21 19 19 14 12 9 7
8 7 7 6 5 5 5 5 6 5 6 6 5 4 4 7 10 30 80 82 67 60 55 56 63 82 84 79 79 74 66 61 64 62 60 60 56 50 48 44 33 26 28 21 11 8 6
16 9 7 7 6 6 5 5 4 4 4 5 5 5 5 5 4 7 18 33 62 45 45 50 58 63 71 78 80 79 69 59 58 58 56 52 46 40 33 29 25 20 17 11 9 7 6
7 9 9 7 7 7 6 6 5 4 4 4 4 4 12 36 11 6 8 12 11 29 40 44 47 49 46 59 60 63 66 61 60 56 54 46 39 32 27 23 19 15 12 13 11 6 5
13 8 7 7 7 7 7 7 6 5 4 4 4 4 4 14 55 37 28 10 12 21 44 42 38 36 42 54 55 58 53 70 69 55 47 40 34 28 19 12 10 9 8 6 12 6 5
16 16 16 10 8 7 8 8 8 6 5 5 5 5 4 16 37 44 36 20 18 19 34 38 36 35 39 55 63 52 65 75 72 53 38 26 19 13 12 12 11 6 3 4 4 4 2
18 22 20 20 15 12 9 11 9 9 20 7 5 11 8 28 51 32 27 17 26 46 57 44 38 36 33 53 58 63 70 62 39 28 19 14 12 8 3 2 2 2 2 2 2 2 2
22 23 26 25 22 20 16 12 13 13 12 99 17 47 27 63 23 31 50 37 43 51 56 55 51 39 30 60 75 61 42 29 15 10 5 3 2 2 2 2 2 3 4 10 8 9 8
8 11 15 18 21 22 21 19 16 16 15 85 65 55 26 65 86 22 70 74 69 86 79 62 53 43 51 65 47 24 19 11 6 4 2 2 2 2 2 6 18 11 34 32 35 26 23
10 11 11 9 10 11 14 19 18 17 15 27 100 99 73 72 96 35 47 83 73 88 90 66 56 52 50 47 30 17 8 5 3 2 2 2 3 5 10 14 28 27 49 37 53 20 19
6 8 15 16 11 10 10 12 15 16 14 71 96 37 83 59 92 72 51 68 84 79 89 65 58 54 45 29 13 7 5 3 2 2 2 6 8 7 8 18 29 28 48 58 37 46 72
2 8 15 20 22 17 11 10 11 12 12 13 18 98 97 98 95 93 98 99 92 92 89 71 64 44 27 14 8 5 3 2 2 4 13 13 12 19 22 17 11 10 30 60 21 63 63
2 12 18 24 35 25 13 10 15 33 11 11 10 63 44 99 99 98 85 100 91 95 85 72 59 38 12 7 5 4 3 2 5 7 17 19 23 37 41 36 32 10 16 15 49 73 97
7 13 18 32 35 32 34 24 69 26 57 31 38 70 94 97 100 92 99 86 84 93 90 67 36 14 8 5 4 3 2 5 18 19 19 29 45 57 87 75 58 40 14 36 74 99 100
21 18 21 38 61 70 40 96 98 53 99 100 66 65 82 94 96 87 100 100 100 97 71 31 15 10 6 5 4 2 5 16 33 26 26 47 60 51 74 88 100 70 81 69 62 99 93
98 100 52 92 89 99 94 100 93 94 97 100 100 85 75 92 89 83 98 98 100 89 33 16 12 7 5 5 3 3 9 19 28 33 28 48 43 57 84 77 71 60 71 99 76 93 100
83 100 95 99 96 99 99 100 100 98 100 97 100 94 82 82 98 98 98 100 97 46 18 14 10 6 5 3 2 4 13 21 27 34 34 44 48 58 79 64 64 65 62 82 99 100 100
100 100 100 100 100 100 100 100 100 99 98 100 99 100 97 96 99 100 100 100 86 30 16 13 9 6 4 2 2 8 18 24 23 28 43 46 46 43 58 100 74 88 84 68 73 88 100
96 100 100 100 100 100 100 100 100 100 99 96 100 100 98 100 100 100 100 96 47 17 14 12 8 5 3 2 7 22 24 27 29 25 37 42 41 60 65 96 96 84 88 84 46 53 84
100 100 100 100 100 99 100 100 100 98 96 100 100 98 99 100 100 100 97 52 23 17 13 10 7 4 3 3 15 36 45 41 36 24 38 37 50 71 60 70 86 95 70 81 69 95 100
100 100 100 100 100 100 100 100 98 99 100 100 100 100 100 100 100 100 83 40 20 13 12 8 5 4 4 4 6 38 51 54 40 47 69 60 96 83 57 61 86 88 79 96 100 100 98
100 100 100 100 100 100 100 100 96 97 100 100 100 100 100 100 100 98 72 28 16 13 11 6 5 5 4 4 6 16 44 36 32 49 82 100 95 100 76 99 88 100 87 98 100 100 100
99 100 100 100 100 100 99 100 100 100 100 100 100 100 100 100 96 97 38 22 16 11 9 6 6 4 3 5 6 8 30 32 38 65 77 100 97 99 100 100 95 100 100 100 100 100 100
100 100 100 100 100 100 100 100 100 100 100 100 100 100 100 100 97 47 26 19 14 11 8 5 4 3 4 6 7 7 15 35 51 86 80 100 100 100 100 100 100 100 100 100 100 100 100
100 100 100 100 100 99 100 100 100 100 100 100 100 100 100 93 66 24 20 20 16 12 6 4 3 3 4 7 8 7 7 25 58 81 83 93 100 92 82 95 100 100 100 100 100 100 99
100 100 100 100 100 100 100 100 100 100 97 100 100 100 97 97 67 28 23 21 16 11 6 4 3 3 4 7 9 8 10 29 51 76 70 75 100 100 100 80 100 99 100 99 98 95 85
100 100 100 100 100 100 100 100 100 99 100 100 100 99 99 99 41 22 19 22 17 11 6 4 4 4 5 8 9 9 15 44 60 77 85 99 100 100 100 97 96 99 92 84 73 73 72
100 100 100 100 100 100 100 100 100 100 100 100 100 100 98 92 38 18 19 20 18 12 7 5 4 4 6 8 11 10 19 43 83 94 98 100 100 100 100 100 100 99 95 62 53 45 47
100 100 100 100 100 100 100 100 100 100 100 100 100 98 98 82 33 19 17 18 18 14 7 5 4 5 6 8 12 12 15 52 92 99 98 100 100 100 100 100 100 100 100 82 59 52 48